Location: Ferchesar
(52.6477°N, 12.4298°E)
Time: 04:34:41
(UTC+01:00)

Explorer 7 - Pass Details

Date: 08 December 2021
Orbit: 483 x 674 km, 50.3° (Epoch: 21 January)

Event Time Altitude Azimuth Distance (km) Brightness Sun altitude
Rises 09:51:05 0° 279° (W) 2,698 10.0 9.4°
Reaches altitude 10° 09:53:43 10° 264° (W) 1,769 9.2 9.6°
Maximum altitude 09:56:48 22° 214° (SSW) 1,165 9.0 9.8°
Drops below altitude 10° 09:59:47 10° 162° (SSE) 1,697 11.7 10.0°
Sets 10:02:16 0° 147° (SSE) 2,557 12.5 10.2°
